WB7TUJ Weather Reports


Display with metric or nautical units.
time (UTC)temp
F
wind
direction
speed
MPH
gust
MPH
rain 1hr
in
rain 24hr
in
rain mn
in
humidity
%
barometer
mb
20260904014534 92 153 3.0 13.0 1.01 2.15 2.13 46 963.8
20260904013033 92 90 4.0 14.0 0.90 2.04 2.02 44 963.8
20260904011534 95 173 14.0 22.0 0.54 1.67 1.65 41 963.6
20260904010033 98 149 0.0 8.0 0.02 1.14 1.12 36 963.3
20260904004532 98 210 0.0 7.0 0.01 1.13 1.12 35 963.3
20260904003031 99 287 0.0 7.0 0.03 1.13 1.12 35 963.3
20260904001530 98 67 0.0 0.0 0.02 1.12 1.11 35 963.3
20260904000030 99 183 0.0 4.0 0.02 1.12 1.11 35 963.5
20260903234528 98 132 2.0 10.0 0.04 1.13 1.11 35 963.6
20260903233033 99 122 0.0 6.0 0.02 1.12 1.09 34 963.7
20260903231526 98 96 0.0 0.0 0.02 1.12 1.09 35 963.7
20260903230026 98 201 0.0 8.0 0.03 1.12 1.09 35 963.9
20260903224528 99 190 0.0 8.0 0.14 1.22 1.07 34 964.1
20260903223018 99 61 0.0 0.0 0.17 1.22 1.07 35 964.3
20260903221534 98 251 0.0 5.0 0.27 1.22 1.07 35 964.5
20260903220015 98 196 0.0 9.0 0.31 1.19 1.04 35 964.7
20260903214512 98 189 3.0 14.0 0.21 1.19 0.93 34 965.0
20260903213019 98 263 0.0 12.0 0.30 1.15 0.90 35 965.2
20260903211508 98 109 2.0 11.0 0.26 1.06 0.80 34 965.4
20260903210009 98 132 0.0 4.0 0.20 1.48 0.73 35 965.6
20260903204507 97 215 1.0 10.0 0.27 1.47 0.72 36 965.9
20260903203001 97 213 8.0 14.0 0.20 1.35 0.60 35 966.2
20260903201600 98 123 0.0 6.0 0.22 1.29 0.54 38 966.3
20260903200057 97 158 1.0 10.0 0.25 1.28 0.53 39 966.5
20260903194555 96 162 4.0 10.0 0.24 1.49 0.45 40 966.5
20260903193052 95 187 3.0 13.0 0.22 1.44 0.40 38 966.9
20260903191551 96 194 1.0 9.0 0.27 1.36 0.32 37 967.1
20260903190048 94 141 0.0 8.0 0.24 1.32 0.28 40 967.4
20260903184548 95 170 1.0 10.0 0.14 1.62 0.18 40 967.6
20260903183048 94 138 1.0 8.0 0.17 1.62 0.18 41 967.9
20260903181546 94 195 1.0 8.0 0.04 1.49 0.05 40 968.1
20260903180108 93 131 0.0 8.0 0.03 1.48 0.04 42 968.3
20260903174543 93 112 0.0 7.0 0.03 1.77 0.04 44 968.4
20260903173042 93 92 0.0 8.0 0.00 1.74 0.01 45 968.6
20260903171548 92 69 1.0 7.0 0.00 1.74 0.01 47 968.5
20260903170038 91 130 0.0 0.0 0.00 1.74 0.01 47 968.6
20260903164537 91 109 0.0 0.0 0.00 1.76 0.01 48 968.6
20260903163041 91 154 0.0 0.0 0.00 1.76 0.01 49 968.6
20260903161533 90 140 0.0 0.0 0.01 1.76 0.01 50 968.7
20260903160031 89 140 0.0 0.0 0.01 1.76 0.01 51 968.8
20260903154530 88 137 0.0 0.0 0.01 1.76 0.01 54 968.8
20260903153030 88 136 0.0 0.0 0.01 1.76 0.01 56 968.8
20260903151530 86 100 0.0 0.0 0.00 1.75 0.00 58 968.8
20260903150030 85 100 0.0 0.0 0.00 1.75 0.00 60 968.8
20260903144529 85 98 0.0 0.0 0.00 1.75 0.00 61 968.9
20260903143027 85 80 0.0 0.0 0.00 1.75 0.00 61 968.9
20260903141528 85 76 0.0 0.0 0.00 1.75 0.00 62 968.9
20260903140028 84 76 0.0 0.0 0.00 1.75 0.00 63 968.6
20260903134523 84 76 0.0 0.0 0.00 1.75 0.00 63 968.4
20260903133022 83 76 0.0 0.0 0.00 1.75 0.00 63 968.1
20260903131518 83 76 0.0 0.0 0.00 1.75 0.00 63 968.0
20260903130023 83 76 0.0 0.0 0.00 1.75 0.00 62 968.0
20260903124515 84 76 0.0 0.0 0.00 1.75 0.00 62 967.8
20260903123016 84 76 0.0 0.0 0.00 1.75 0.00 59 967.8
20260903121512 84 76 0.0 0.0 0.00 1.75 0.00 58 967.6
20260903120011 83 76 0.0 0.0 0.00 1.75 0.00 59 967.4
20260903114509 84 76 0.0 0.0 0.00 1.75 0.00 57 967.3
20260903113017 84 190 0.0 0.0 0.00 1.75 0.00 57 967.2
20260903111504 84 190 0.0 0.0 0.00 1.75 0.00 55 967.2
20260903110004 84 190 0.0 0.0 0.00 1.75 0.00 52 967.1
20260903104503 85 190 0.0 0.0 0.00 1.75 0.00 52 967.1
20260903103101 85 190 0.0 0.0 0.00 1.75 0.00 54 967.0
20260903101606 85 190 0.0 0.0 0.00 1.75 0.00 54 967.0
20260903100059 86 190 0.0 0.0 0.00 1.75 0.00 54 967.1
20260903094601 86 190 0.0 0.0 0.00 1.75 0.00 54 967.1
20260903093056 86 190 0.0 0.0 0.00 1.75 0.00 54 967.1
20260903091555 86 190 0.0 0.0 0.00 1.75 0.00 53 967.1
20260903090053 86 190 0.0 0.0 0.00 1.75 0.00 53 966.9
20260903084551 87 190 0.0 0.0 0.00 1.75 0.00 52 966.7
20260903083048 87 190 0.0 0.0 0.00 1.75 0.00 51 966.8
20260903081548 88 190 0.0 0.0 0.00 1.75 0.00 50 966.8
20260903080044 89 190 0.0 0.0 0.00 1.75 0.00 49 966.8
20260903074547 89 190 0.0 0.0 0.00 1.75 0.00 48 966.9
20260903073039 90 190 0.0 0.0 0.00 1.75 0.00 47 966.8
20260903071537 90 190 0.0 0.0 0.00 1.75 0.00 46 966.9
20260903070036 92 188 0.0 0.0 0.00 1.75 0.00 38 966.9
20260903064532 93 268 0.0 0.0 0.00 1.75 1.75 30 966.7
20260903063034 94 268 0.0 0.0 0.00 1.75 1.75 30 966.6
20260903061546 94 270 0.0 0.0 0.00 1.75 1.75 32 966.6
20260903060029 94 283 2.0 9.0 0.00 1.75 1.75 36 966.6
20260903054542 94 265 0.0 0.0 0.00 1.75 1.75 40 966.6
20260903053041 94 265 0.0 0.0 0.00 1.75 1.75 40 966.6
20260903051527 94 265 0.0 0.0 0.00 1.75 1.75 40 966.6
20260903050027 95 265 0.0 0.0 0.00 1.75 1.75 39 966.5
20260903044527 95 264 0.0 0.0 0.00 1.75 1.75 39 966.5
20260903043026 95 267 0.0 0.0 0.00 1.75 1.75 39 966.5
20260903041529 95 267 0.0 0.0 0.00 1.75 1.75 38 966.6
20260903040026 96 267 0.0 0.0 0.00 1.75 1.75 37 966.4
20260903034525 96 286 0.0 0.0 0.00 1.75 1.75 36 966.2
20260903033024 96 286 0.0 8.0 0.00 1.75 1.75 35 966.1
20260903031524 96 287 0.0 9.0 0.00 1.75 1.75 35 966.0
20260903030036 96 264 2.0 10.0 0.00 1.75 1.75 35 965.8
20260903024536 97 287 4.0 9.0 0.00 1.75 1.75 35 965.8
20260903023023 97 271 0.0 10.0 0.00 1.75 1.75 35 965.7
20260903021530 97 282 6.0 10.0 0.00 1.75 1.75 35 965.5
20260903020026 97 269 0.0 13.0 0.02 1.75 1.75 35 965.3